Tracking 29892 objects as of 21-Nov-2024
HD Live streaming from Space Station
objects crossing your sky now

LEMUR 2 FURIAUS

Track LEMUR 2 FURIAUS now!
10-day predictions
LEMUR 2 FURIAUS is classified as:


NORAD ID: 42840
Int'l Code: 2017-042R
Perigee: 539.1 km
Apogee: 554.3 km
Inclination: 97.4 °
Period: 95.4 minutes
Semi major axis: 6917 km
RCS: Unknown
Launch date: July 14, 2017
Source: United States (US)
Launch site: TYURATAM MISSILE AND SPACE COMPLEX (TTMTR)
Your satellite tracking list
Your tracking list is empty




NASA's NSSDC Master Catalog

Two Line Element Set (TLE):
1 42840U 17042R   24324.96577255  .00017226  00000-0  10931-2 0  9997
2 42840  97.3617 146.4080 0010987 271.7152  88.2818 15.08902628401029
Source of the keplerian elements: AFSPC